Hourly Weather Abbakumovo

Today, 25 November, Wednesday

Time Temperature Precipitation Wind Pressure Humidity
00:00 -1°C° 0 mm 3 mps 738 mmHg 93%
01:00 -1°C° 0 mm 3 mps 739 mmHg 93%
02:00 -1°C° 0 mm 2 mps 739 mmHg 91%
03:00 -1°C° 0 mm 2 mps 739 mmHg 92%
04:00 -1°C° 0 mm 2 mps 739 mmHg 92%
05:00 -1°C° 0 mm 2 mps 739 mmHg 92%
06:00 +1°C° 0 mm 1 mps 739 mmHg 91%
07:00 +1°C° 0 mm 1 mps 740 mmHg 91%
08:00 +1°C° 0 mm 1 mps 740 mmHg 89%
09:00 +1°C° 0 mm 1 mps 740 mmHg 87%
10:00 +1°C° 0 mm 1 mps 741 mmHg 85%
11:00 +1°C° 0 mm 1 mps 741 mmHg 83%
12:00 +1°C° 0 mm 1 mps 741 mmHg 83%
13:00 +1°C° 0 mm 1 mps 742 mmHg 82%
14:00 +1°C° 0 mm 1 mps 742 mmHg 81%
15:00 +1°C° 0 mm 1 mps 742 mmHg 81%
16:00 +1°C° 0 mm 1 mps 742 mmHg 81%
17:00 +1°C° 0 mm 1 mps 743 mmHg 81%
18:00 +1°C° 0 mm 1 mps 743 mmHg 81%
19:00 0°C° 0 mm 0 mps 743 mmHg 80%
20:00 0°C° 0 mm 0 mps 743 mmHg 80%
21:00 0°C° 0 mm 1 mps 743 mmHg 81%
22:00 0°C° 0 mm 1 mps 743 mmHg 82%
23:00 -1°C° 0 mm 1 mps 743 mmHg 84%

Tomorrow, 26 November, Thursday

Time Temperature Precipitation Wind Pressure Humidity
00:00 0°C° 0 mm 1 mps 743 mmHg 84%
01:00 -2°C° 0 mm 2 mps 743 mmHg 84%
02:00 -2°C° 0 mm 2 mps 743 mmHg 85%
03:00 -1°C° 0.2 mm 2 mps 742 mmHg 88%
04:00 -1°C° 0.2 mm 3 mps 742 mmHg 91%
05:00 -1°C° 0.2 mm 3 mps 741 mmHg 94%
06:00 0°C° 0.4 mm 3 mps 741 mmHg 95%
07:00 0°C° 0.4 mm 3 mps 741 mmHg 96%
08:00 0°C° 0.4 mm 3 mps 741 mmHg 96%
09:00 +1°C° 0.3 mm 3 mps 740 mmHg 96%
10:00 +2°C° 0.3 mm 3 mps 740 mmHg 97%
11:00 +3°C° 0.3 mm 2 mps 739 mmHg 97%
12:00 +3°C° 0 mm 2 mps 739 mmHg 96%
13:00 +4°C° 0 mm 2 mps 739 mmHg 95%
14:00 +4°C° 0 mm 2 mps 739 mmHg 94%
15:00 +3°C° 0 mm 3 mps 738 mmHg 94%
16:00 +2°C° 0 mm 3 mps 738 mmHg 93%
17:00 +2°C° 0 mm 3 mps 738 mmHg 92%
18:00 +2°C° 0 mm 3 mps 737 mmHg 92%
19:00 +1°C° 0 mm 3 mps 737 mmHg 91%
20:00 +1°C° 0 mm 3 mps 737 mmHg 90%
21:00 +1°C° 0 mm 3 mps 736 mmHg 90%
22:00 0°C° 0 mm 3 mps 736 mmHg 89%
23:00 0°C° 0 mm 3 mps 736 mmHg 89%

Day after tomorrow, 27 November, Friday

Time Temperature Precipitation Wind Pressure Humidity
00:00 0°C° 0 mm 3 mps 735 mmHg 88%
01:00 -1°C° 0 mm 4 mps 735 mmHg 88%
02:00 -1°C° 0 mm 4 mps 735 mmHg 88%
03:00 -1°C° 0.1 mm 4 mps 735 mmHg 91%
04:00 -1°C° 0.1 mm 4 mps 734 mmHg 93%
05:00 -1°C° 0.1 mm 4 mps 734 mmHg 96%
06:00 0°C° 0.4 mm 3 mps 734 mmHg 96%
07:00 0°C° 0.4 mm 3 mps 734 mmHg 97%
08:00 +1°C° 0.4 mm 3 mps 734 mmHg 97%
09:00 +2°C° 0.5 mm 2 mps 734 mmHg 97%
10:00 +2°C° 0.5 mm 2 mps 733 mmHg 97%
11:00 +2°C° 0.5 mm 2 mps 733 mmHg 98%
12:00 +3°C° 0.6 mm 1 mps 733 mmHg 98%
13:00 +3°C° 0.6 mm 1 mps 734 mmHg 98%
14:00 +3°C° 0.6 mm 1 mps 734 mmHg 98%
15:00 +3°C° 0.6 mm 1 mps 734 mmHg 98%
16:00 +3°C° 0.6 mm 1 mps 734 mmHg 98%
17:00 +3°C° 0.6 mm 1 mps 734 mmHg 98%
18:00 +3°C° 0.4 mm 1 mps 735 mmHg 98%
19:00 +3°C° 0.4 mm 1 mps 735 mmHg 98%
20:00 +2°C° 0.4 mm 2 mps 735 mmHg 97%
21:00 +2°C° 0.1 mm 2 mps 736 mmHg 97%
22:00 +2°C° 0.1 mm 2 mps 736 mmHg 97%
23:00 +2°C° 0.1 mm 2 mps 737 mmHg 97%

28 November, Saturday

Time Temperature Precipitation Wind Pressure Humidity
00:00 +2°C° 0.1 mm 2 mps 737 mmHg 97%
01:00 +2°C° 0.1 mm 2 mps 738 mmHg 97%
02:00 +2°C° 0.1 mm 2 mps 738 mmHg 97%
03:00 +3°C° 0.1 mm 1 mps 739 mmHg 97%
04:00 +3°C° 0.1 mm 1 mps 739 mmHg 97%
05:00 +3°C° 0.1 mm 1 mps 740 mmHg 97%
06:00 +3°C° 0.1 mm 1 mps 740 mmHg 97%
07:00 +2°C° 0.1 mm 2 mps 741 mmHg 97%
08:00 +2°C° 0.1 mm 2 mps 741 mmHg 97%
09:00 +2°C° 0.1 mm 2 mps 742 mmHg 96%
10:00 +2°C° 0.1 mm 2 mps 742 mmHg 96%
11:00 +1°C° 0.1 mm 2 mps 743 mmHg 96%
12:00 +1°C° 0.1 mm 2 mps 743 mmHg 96%
13:00 +1°C° 0.1 mm 2 mps 744 mmHg 96%
14:00 +1°C° 0.1 mm 2 mps 744 mmHg 96%
15:00 +1°C° 0.1 mm 2 mps 745 mmHg 95%
16:00 +1°C° 0.1 mm 2 mps 745 mmHg 94%
17:00 -1°C° 0.1 mm 2 mps 745 mmHg 94%
18:00 -1°C° 0.1 mm 2 mps 746 mmHg 93%
19:00 -1°C° 0.1 mm 2 mps 746 mmHg 93%
20:00 -1°C° 0.1 mm 2 mps 747 mmHg 92%
21:00 -1°C° 0.1 mm 2 mps 747 mmHg 93%
22:00 -2°C° 0.1 mm 2 mps 747 mmHg 95%
23:00 0°C° 0.1 mm 1 mps 748 mmHg 96%

29 November, Sunday

Time Temperature Precipitation Wind Pressure Humidity
00:00 0°C° 0.1 mm 1 mps 748 mmHg 96%
01:00 +1°C° 0.1 mm 1 mps 748 mmHg 96%
02:00 +1°C° 0.1 mm 1 mps 749 mmHg 95%
03:00 -1°C° 0.1 mm 2 mps 749 mmHg 95%
04:00 -1°C° 0.1 mm 2 mps 749 mmHg 96%
05:00 -1°C° 0.1 mm 2 mps 749 mmHg 96%
06:00 -1°C° 0 mm 2 mps 750 mmHg 95%
07:00 -2°C° 0 mm 2 mps 750 mmHg 94%
08:00 -2°C° 0 mm 2 mps 750 mmHg 93%
09:00 -1°C° 0 mm 2 mps 750 mmHg 89%
10:00 -1°C° 0 mm 2 mps 750 mmHg 86%
11:00 -1°C° 0 mm 3 mps 750 mmHg 82%
12:00 -1°C° 0 mm 3 mps 750 mmHg 83%
13:00 -1°C° 0 mm 3 mps 750 mmHg 84%
14:00 -1°C° 0 mm 3 mps 749 mmHg 85%
15:00 -1°C° 0 mm 3 mps 749 mmHg 87%
16:00 -1°C° 0 mm 3 mps 749 mmHg 89%
17:00 -2°C° 0 mm 4 mps 749 mmHg 91%
18:00 -2°C° 0.1 mm 4 mps 749 mmHg 92%
19:00 -1°C° 0.1 mm 4 mps 749 mmHg 93%
20:00 -1°C° 0.1 mm 4 mps 749 mmHg 95%
21:00 -1°C° 0 mm 4 mps 749 mmHg 93%
22:00 -1°C° 0 mm 4 mps 748 mmHg 91%
23:00 +1°C° 0 mm 3 mps 748 mmHg 90%

30 November, Monday

Time Temperature Precipitation Wind Pressure Humidity
00:00 +1°C° 0.1 mm 3 mps 748 mmHg 92%
01:00 +1°C° 0.1 mm 3 mps 747 mmHg 94%
02:00 +1°C° 0.1 mm 3 mps 747 mmHg 97%
03:00 +1°C° 0.1 mm 3 mps 747 mmHg 97%
04:00 +1°C° 0.1 mm 3 mps 746 mmHg 96%
05:00 +1°C° 0.1 mm 3 mps 746 mmHg 96%
06:00 +2°C° 0.3 mm 3 mps 746 mmHg 96%
07:00 +2°C° 0.3 mm 3 mps 745 mmHg 96%
08:00 +2°C° 0.3 mm 3 mps 745 mmHg 96%
09:00 +2°C° 0.7 mm 3 mps 745 mmHg 96%
10:00 +2°C° 0.7 mm 3 mps 745 mmHg 96%
11:00 +2°C° 0.7 mm 3 mps 745 mmHg 97%
12:00 +2°C° 0.2 mm 3 mps 745 mmHg 93%
13:00 +1°C° 0.2 mm 3 mps 744 mmHg 89%
14:00 +1°C° 0.2 mm 3 mps 744 mmHg 86%
15:00 +1°C° 0.1 mm 3 mps 744 mmHg 87%
16:00 0°C° 0.1 mm 3 mps 744 mmHg 89%
17:00 -1°C° 0.1 mm 3 mps 744 mmHg 91%
18:00 -1°C° 0.1 mm 3 mps 744 mmHg 91%
19:00 -2°C° 0.1 mm 3 mps 744 mmHg 91%
20:00 -2°C° 0.1 mm 3 mps 744 mmHg 91%
21:00 -2°C° 0.1 mm 3 mps 744 mmHg 90%
22:00 -2°C° 0.1 mm 3 mps 744 mmHg 90%
23:00 -2°C° 0.1 mm 3 mps 745 mmHg 89%
Show more